Regional Weather Roundup
Issued by NWS

Home | Current Version | Previous Version | Graphics & Text | Print | Product List | Glossary On
Versions: 1 2 3 4 5 6 7 8 9 10 11 12 13 14 15 16 17 18 19 20 21 22 23 24 25 26 27 28 29 30 31 32 33 34 35 36 37 38 39 40 41 42 43 44 45 46 47 48 49 50
000
ASUS43 KIND 271509
RWRIN

WEATHER ROUNDUP FOR INDIANA
NATIONAL WEATHER SERVICE INDIANAPOLIS IN
1100 AM EDT FRI MAY 27 2016

NOTE: "FAIR" INDICATES FEW OR NO CLOUDS BELOW 12,000 FEET WITH NO
SIGNIFICANT WEATHER AND/OR OBSTRUCTIONS TO VISIBILITY.

* - STATION DOES NOT REPORT WEATHER SUCH AS PRECIPITATION OR FOG.

+ - STATION NOT QUALITY CONTROLLED BY THE NATIONAL WEATHER SERVICE.
    USE DATA WITH CAUTION...ESPECIALLY DEWPOINT AND RELATIVE
    HUMIDITY OBSERVATIONS.

INZ001>003-010>013-019-020-271600-
NORTHWEST INDIANA

CITY           SKY/WX    TMP DP  RH WIND       PRES   REMARKS
GARY /AIRPORT/ MOSUNNY   75  72  88 S8        29.92S
KNOX *+        CLOUDY    70  59  68 S7        29.95S
LA PORTE +     PTSUNNY   73  65  78 S7        29.96R
MICHIGAN CITY+ MOSUNNY   72  64  78 S12       29.94S
MONTICELLO +   PTSUNNY   75  62  64 S13       29.96R
RENSSELAER +   MOSUNNY   73  68  83 S14       29.96R
VALPARAISO     CLOUDY    72  64  76 SW12      29.95S

$$

LMZ046-743>745-271600-
SOUTHERN LAKE MICHIGAN

STATION/POSITION TIME  TEMP    WIND        PRES    WAVE
                       AIR SEA DIR/SP/G            HT
                 (UTC) (F)     (DEG/KT/KT) (MB)    (FT)
BURNS HARBOR     1400   71     190/ 12/ 16 1013.9R
MICHIGAN CITY    1400   71     180/ 10/ 12   N/A
5NW MICH CITY    1500   65 59  170/  4/  6   N/A     1

$$

INZ004-005-014>016-021>024-271600-
NORTH CENTRAL INDIANA

CITY           SKY/WX    TMP DP  RH WIND       PRES   REMARKS
ELKHART        MOSUNNY   73  68  83 SW12      29.97S
GOSHEN         CLOUDY    74  62  66 S14       29.98R
LOGANSPORT +   PTSUNNY   73  63  68 S10       29.98R
PERU/GRISSOM   MOSUNNY   76  66  71 S7        29.97S
ROCHESTER +    MOSUNNY   73  64  73 S7        29.97F
SOUTH BEND     PTSUNNY   73  64  73 S13       29.96R
WARSAW +       MOSUNNY   72  63  73 SW5       29.98S

$$

INZ006>009-017-018-025>027-271600-
NORTHEAST INDIANA

CITY           SKY/WX    TMP DP  RH WIND       PRES   REMARKS
ANGOLA *+        N/A     72  64  78 S9        29.99S
AUBURN +       CLOUDY    72  61  68 SW3       30.00S
FORT WAYNE     CLOUDY    73  63  70 S7        30.00S
HUNTINGTON +   CLOUDY   N/A N/A N/A S3        29.99S

$$

INZ028-029-035-036-043>045-051>053-271600-
WEST CENTRAL INDIANA

CITY           SKY/WX    TMP DP  RH WIND       PRES   REMARKS
CRAWFORDSVL +  CLOUDY    73  66  79 S9        29.99S
GREENCASTLE +  CLOUDY    72  68  88 S6        30.00F
LAFAYETTE      CLOUDY    74  63  68 SW8       29.97R
TERRE HAUTE    MOSUNNY   73  65  75 S10       29.99R

$$

INZ030>032-037>040-046>048-054>057-064-065-271600-
CENTRAL INDIANA

CITY           SKY/WX    TMP DP  RH WIND       PRES   REMARKS
CP ATTERBURY + MOSUNNY   75  64  69 SE5       30.02F
COLUMBUS       MOSUNNY   73  68  83 S8        30.02S
FRANKFORT +      N/A     76  56  50 SW9G18    30.01R
GREENWOOD *+   CLOUDY    75  66  73 S7        30.02S
INDIANAPOLIS   CLOUDY    74  66  76 S9        29.99R
-EAGLE CREEK   CLOUDY    74  64  71 S9        30.00R
KOKOMO *+      CLOUDY    75  64  69 S8        29.98S
MARION +       CLOUDY    73  64  74 S8        30.00S
SHELBYVILLE    PTSUNNY   77  64  64 S10       30.02R
ZIONSVILLE +   MOSUNNY   74  65  73 S10       30.01S

$$

INZ033-034-041-042-049-050-058-059-271600-
EAST CENTRAL INDIANA

CITY           SKY/WX    TMP DP  RH WIND       PRES   REMARKS
MUNCIE         MOSUNNY   76  63  64 S8        30.01S

$$

INZ060-061-067>069-081>083-085>088-271600-
SOUTHWEST INDIANA

CITY           SKY/WX    TMP DP  RH WIND       PRES   REMARKS
EVANSVILLE     CLOUDY    75  66  73 S13       29.98F
HUNTINGBURG *+ MOSUNNY   79  66  65 S10       30.00F
WASHINGTON +   MOSUNNY   75  68  78 S9        29.98F

$$

INZ062-063-066-070>080-084-089>092-271600-
SOUTH CENTRAL AND SOUTHEAST INDIANA

CITY           SKY/WX    TMP DP  RH WIND       PRES   REMARKS
BEDFORD +      SUNNY     77  73  88 S12       30.01S
BLOOMINGTON    MOSUNNY   76  64  66 S7        30.01R
MADISON *+     MOSUNNY   77  63  61 S7        30.06S
NORTH VERNON + SUNNY     77  72  83 CALM      30.04S
SEYMOUR +      MOSUNNY   79  64  61 S8        30.02F

$$




USA.gov is the U.S. government's official web portal to all federal, state and local government web resources and services.